DW9580 Weather Reports


time (UTC)temp
C
wind
direction
speed
KPH
gust
KPH
rain 1hr
cm
rain 24hr
cm
rain mn
cm
humidity
%
barometer
mb
20260505153205 11 5 3.2 12.9 0.00 0.18 0.03 83 1006.6
20260505152704 11 5 4.8 14.5 0.00 0.20 0.03 83 1006.6
20260505152205 11 5 4.8 14.5 0.00 0.20 0.03 83 1006.6
20260505151705 11 0 6.4 14.5 0.00 0.20 0.03 83 1006.6
20260505151228 11 355 4.8 12.9 0.00 0.20 0.03 83 1006.6
20260505150705 11 355 4.8 14.5 0.00 0.20 0.03 83 1006.6
20260505150205 11 355 4.8 14.5 0.00 0.20 0.03 83 1006.7
20260505140205 11 355 4.8 14.5 0.00 0.23 0.03 82 1006.8
20260505130205 12 355 3.2 9.7 0.00 0.23 0.03 82 1007.3
20260505124707 12 0 3.2 12.9 0.00 0.23 0.03 82 1007.4
20260505124205 12 5 3.2 12.9 0.00 0.23 0.03 82 1007.4
20260505123705 12 5 4.8 12.9 0.00 0.23 0.03 82 1007.4
20260505123205 12 5 4.8 11.3 0.00 0.23 0.03 82 1007.4
20260505122706 12 5 3.2 11.3 0.00 0.23 0.03 82 1007.4
20260505122205 12 5 1.6 12.9 0.00 0.23 0.03 82 1007.5
20260505121705 12 9 3.2 14.5 0.00 0.23 0.03 81 1007.4
20260505121205 12 9 4.8 14.5 0.00 0.23 0.03 82 1007.4
20260505120206 12 17 4.8 12.9 0.00 0.23 0.03 81 1007.4
20260505115706 12 0 3.2 12.9 0.00 0.23 0.03 81 1007.5
20260505114706 12 355 4.8 12.9 0.00 0.23 0.03 82 1007.5
20260505114205 12 336 4.8 12.9 0.00 0.23 0.03 81 1007.5
20260505113705 12 355 3.2 12.9 0.00 0.23 0.03 81 1007.5
20260505113205 12 349 3.2 14.5 0.00 0.23 0.03 81 1007.5
20260505112707 12 349 4.8 14.5 0.00 0.23 0.03 81 1007.5
20260505112206 12 349 4.8 12.9 0.00 0.23 0.03 82 1007.5
20260505111704 12 342 4.8 12.9 0.00 0.23 0.03 82 1007.5
20260505111205 12 337 4.8 14.5 0.00 0.23 0.03 82 1007.5
20260505110705 12 331 4.8 14.5 0.00 0.23 0.03 82 1007.5
20260505110206 12 331 4.8 12.9 0.00 0.23 0.03 82 1007.6
20260505102206 13 11 6.4 16.1 0.00 0.23 0.03 83 1007.6
20260505101706 13 5 6.4 16.1 0.00 0.23 0.03 83 1007.6
20260505101205 13 5 6.4 16.1 0.00 0.23 0.03 83 1007.7
20260505100706 14 346 4.8 14.5 0.00 0.23 0.03 83 1007.6
20260505100206 14 0 4.8 12.9 0.00 0.23 0.03 83 1007.6
20260505095705 15 0 3.2 8.0 0.00 0.23 0.03 83 1007.6
20260505095211 15 5 1.6 6.4 0.00 0.23 0.03 83 1007.5
20260505094705 15 5 0.0 6.4 0.00 0.23 0.03 83 1007.5
20260505094205 15 5 0.0 8.0 0.00 0.23 0.03 83 1007.6
20260505093705 15 5 1.6 8.0 0.00 0.23 0.03 83 1007.6
20260505093205 14 5 1.6 4.8 0.00 0.23 0.03 83 1007.7
20260505092206 14 5 0.0 4.8 0.00 0.23 0.03 83 1007.7
20260505091706 14 5 0.0 4.8 0.00 0.23 0.03 83 1007.8
20260505090705 14 10 0.0 6.4 0.00 0.23 0.03 82 1007.9
20260505090205 13 10 0.0 6.4 0.00 0.23 0.03 81 1007.8
20260505085705 13 10 1.6 4.8 0.00 0.23 0.03 81 1007.9
20260505085205 13 10 1.6 4.8 0.00 0.23 0.03 81 1007.9
20260505084706 13 10 1.6 4.8 0.00 0.23 0.03 80 1007.8
20260505084205 13 10 0.0 4.8 0.00 0.23 0.03 80 1007.9
20260505083705 13 10 0.0 3.2 0.00 0.23 0.03 80 1007.8
20260505083205 13 10 0.0 3.2 0.00 0.23 0.03 79 1007.8
20260505081705 13 10 0.0 3.2 0.00 0.23 0.03 79 1007.8
20260505081205 13 10 0.0 3.2 0.00 0.23 0.03 79 1007.8
20260505080705 13 10 0.0 3.2 0.00 0.23 0.03 79 1007.9
20260505080205 13 10 0.0 6.4 0.00 0.23 0.03 79 1007.9
20260505075705 13 10 0.0 6.4 0.00 0.23 0.03 78 1007.9
20260505075205 13 10 0.0 3.2 0.00 0.23 0.03 78 1007.9
20260505074706 13 10 0.0 3.2 0.00 0.23 0.03 79 1008.0
20260505074205 13 10 0.0 1.6 0.00 0.23 0.03 78 1007.9
20260505073705 13 10 0.0 1.6 0.00 0.23 0.03 78 1008.0
20260505073205 13 10 0.0 1.6 0.00 0.23 0.03 78 1008.0
20260505072705 13 10 0.0 1.6 0.00 0.23 0.03 78 1008.0
20260505072206 13 10 0.0 0.0 0.00 0.23 0.03 78 1008.0
20260505071705 13 10 0.0 0.0 0.00 0.23 0.03 78 1008.0
20260505070205 12 10 0.0 1.6 0.00 0.23 0.03 78 1008.0
20260505065705 12 10 0.0 1.6 0.00 0.23 0.03 78 1008.0
20260505065205 12 10 0.0 1.6 0.00 0.23 0.03 78 1008.0
20260505064705 12 10 0.0 1.6 0.00 0.23 0.03 79 1008.1
20260505064205 13 10 0.0 1.6 0.00 0.23 0.03 78 1008.1
20260505063706 13 10 0.0 1.6 0.00 0.23 0.03 78 1008.2
20260505062705 13 10 0.0 0.0 0.00 0.23 0.03 78 1008.2
20260505061705 12 10 0.0 0.0 0.00 0.23 0.03 78 1008.3
20260505061205 12 10 0.0 0.0 0.00 0.23 0.03 78 1008.3
20260505060705 12 10 0.0 0.0 0.00 0.23 0.03 78 1008.3
20260505060208 12 10 0.0 0.0 0.00 0.23 0.03 78 1008.3
20260505055705 12 10 0.0 0.0 0.00 0.23 0.03 79 1008.3
20260505055205 12 10 0.0 1.6 0.00 0.23 0.03 78 1008.3
20260505054705 12 10 0.0 3.2 0.00 0.23 0.03 78 1008.2
20260505054205 12 10 0.0 3.2 0.00 0.23 0.03 78 1008.2
20260505053705 12 10 0.0 3.2 0.00 0.23 0.03 78 1008.2
20260505052705 12 10 0.0 1.6 0.00 0.23 0.03 78 1008.2
20260505052205 12 10 0.0 1.6 0.00 0.23 0.03 78 1008.2
20260505051706 12 10 0.0 0.0 0.00 0.23 0.03 79 1008.2
20260505050705 12 10 0.0 0.0 0.00 0.23 0.03 79 1008.2
20260505050205 12 10 0.0 0.0 0.00 0.23 0.03 79 1008.2
20260505041705 12 10 0.0 0.0 0.00 0.23 0.03 79 1008.2
20260505040705 12 10 0.0 1.6 0.00 0.23 0.03 79 1008.3
20260505040205 12 10 0.0 4.8 0.00 0.23 0.03 79 1008.3
20260505035705 12 10 0.0 4.8 0.00 0.23 0.03 79 1008.3
20260505035205 12 10 0.0 3.2 0.00 0.23 0.03 79 1008.3
20260505034705 12 10 0.0 3.2 0.00 0.23 0.03 79 1008.3
20260505034205 12 10 0.0 3.2 0.00 0.23 0.03 79 1008.3
20260505033705 12 10 0.0 1.6 0.00 0.23 0.03 79 1008.3
20260505033206 12 10 0.0 1.6 0.03 0.23 0.03 79 1008.4
20260505032705 12 10 0.0 1.6 0.03 0.23 0.03 79 1008.5
20260505031705 12 10 0.0 0.0 0.03 0.23 0.03 79 1008.6
20260505031205 12 10 0.0 0.0 0.03 0.23 0.03 79 1008.6
20260505030706 12 10 0.0 0.0 0.03 0.23 0.03 79 1008.6
20260505030205 12 10 0.0 0.0 0.03 0.23 0.03 79 1008.7
20260505025706 12 10 0.0 0.0 0.03 0.23 0.03 79 1008.7
20260505025205 12 10 0.0 0.0 0.03 0.23 0.03 79 1008.7
20260505024705 12 10 0.0 0.0 0.03 0.23 0.03 79 1008.8
20260505024206 12 10 0.0 0.0 0.03 0.23 0.03 79 1008.8
20260505023205 12 10 0.0 0.0 0.00 0.23 0.00 79 1008.9
20260505022208 12 10 0.0 0.0 0.00 0.23 0.00 79 1008.9
20260505021206 12 10 0.0 0.0 0.00 0.23 0.00 79 1009.0
20260505020705 12 10 0.0 0.0 0.00 0.23 0.00 79 1009.0
20260505020205 12 10 0.0 0.0 0.00 0.23 0.00 79 1009.0
20260505015705 12 10 0.0 0.0 0.00 0.23 0.00 79 1009.0
20260505015205 12 10 0.0 0.0 0.00 0.23 0.00 79 1009.0
20260505014705 12 10 0.0 0.0 0.00 0.23 0.00 79 1009.0
20260505014205 12 10 0.0 0.0 0.00 0.23 0.00 79 1009.0
20260505013705 12 10 0.0 0.0 0.00 0.23 0.00 79 1009.0
20260505013205 12 10 0.0 0.0 0.00 0.23 0.00 79 1009.0
20260505012705 12 10 0.0 0.0 0.00 0.23 0.00 79 1009.0
20260505012205 12 10 0.0 0.0 0.00 0.23 0.00 79 1009.0
20260505011707 12 10 0.0 0.0 0.00 0.23 0.00 79 1009.0
20260505011205 12 10 0.0 0.0 0.00 0.23 0.00 79 1009.1
20260505010705 12 10 0.0 0.0 0.00 0.23 0.00 80 1009.1
20260505010205 12 10 0.0 0.0 0.00 0.23 0.00 80 1009.1
20260505005705 12 10 0.0 0.0 0.00 0.23 0.00 80 1009.2
20260505005205 12 10 0.0 0.0 0.00 0.23 0.00 79 1009.2
20260505004706 12 10 0.0 0.0 0.00 0.23 0.00 79 1009.2
20260505004205 12 10 0.0 0.0 0.00 0.23 0.00 80 1009.3
20260505003705 12 10 0.0 0.0 0.00 0.23 0.00 80 1009.3
20260505003206 12 10 0.0 0.0 0.00 0.23 0.00 80 1009.4
20260505002705 12 10 0.0 0.0 0.00 0.23 0.00 80 1009.4
20260505002205 12 10 0.0 0.0 0.00 0.23 0.00 80 1009.4
20260505001705 12 10 0.0 0.0 0.00 0.23 0.00 80 1009.5
20260505001206 12 10 0.0 0.0 0.00 0.23 0.00 80 1009.6
20260505000705 12 10 0.0 0.0 0.00 0.23 0.00 80 1009.5
20260505000205 12 10 0.0 0.0 0.00 0.23 0.00 80 1009.5
20260504235705 12 10 0.0 0.0 0.00 0.23 0.00 80 1009.6
20260504235205 12 10 0.0 0.0 0.00 0.23 0.00 80 1009.6
20260504234710 12 10 0.0 0.0 0.00 0.23 0.00 80 1009.7
20260504234205 12 10 0.0 0.0 0.00 0.23 0.00 80 1009.7
20260504233705 12 10 0.0 0.0 0.00 0.23 0.00 80 1009.7
20260504233207 12 10 0.0 0.0 0.00 0.23 0.00 80 1009.8
20260504232711 12 10 0.0 0.0 0.00 0.23 0.00 80 1009.8
20260504232206 12 10 0.0 0.0 0.00 0.23 0.00 80 1009.8
20260504231705 12 10 0.0 0.0 0.00 0.23 0.00 80 1009.9
20260504230705 12 10 0.0 0.0 0.00 0.23 0.00 80 1009.9
20260504230205 12 10 0.0 0.0 0.00 0.23 0.00 80 1010.0
20260504225705 12 10 0.0 0.0 0.00 0.23 0.00 80 1010.0
20260504225205 12 10 0.0 0.0 0.00 0.23 0.00 80 1010.1
20260504224705 12 10 0.0 0.0 0.00 0.23 0.00 81 1010.1
20260504224209 12 10 0.0 0.0 0.00 0.23 0.00 80 1010.2
20260504223705 12 10 0.0 0.0 0.00 0.23 0.00 81 1010.2
20260504223207 12 10 0.0 0.0 0.00 0.23 0.00 81 1010.2
20260504222706 13 10 0.0 0.0 0.00 0.23 0.00 81 1010.2
20260504222206 13 10 0.0 0.0 0.00 0.23 0.00 81 1010.3
20260504221705 13 10 0.0 0.0 0.00 0.23 0.00 81 1010.3
20260504221207 13 10 0.0 0.0 0.00 0.23 0.00 81 1010.4
20260504220706 13 10 0.0 0.0 0.00 0.23 0.00 81 1010.4
20260504220205 13 10 0.0 1.6 0.03 0.23 0.23 81 1010.4
20260504215705 13 10 0.0 1.6 0.03 0.23 0.23 81 1010.5
20260504215205 13 10 0.0 1.6 0.03 0.23 0.23 81 1010.5
20260504214706 13 10 0.0 0.0 0.03 0.23 0.23 81 1010.6
20260504213205 13 10 0.0 0.0 0.03 0.23 0.23 81 1010.7
20260504212705 13 10 0.0 0.0 0.03 0.23 0.23 81 1010.6
20260504212205 13 10 0.0 0.0 0.03 0.23 0.23 81 1010.7
20260504211705 13 10 0.0 0.0 0.03 0.23 0.23 81 1010.7
20260504211230 13 10 0.0 0.0 0.03 0.23 0.23 81 1010.8
20260504210706 13 10 0.0 0.0 0.00 0.20 0.20 81 1010.8
20260504210209 13 10 0.0 1.6 0.00 0.20 0.20 81 1010.7
20260504205705 13 10 0.0 1.6 0.00 0.20 0.20 81 1010.9
20260504205207 13 10 0.0 1.6 0.00 0.20 0.20 81 1010.9
20260504204711 13 10 0.0 0.0 0.00 0.20 0.20 81 1010.9
20260504204205 13 10 0.0 0.0 0.00 0.20 0.20 81 1010.9
20260504203705 13 10 0.0 1.6 0.00 0.20 0.20 81 1010.9
20260504203205 13 10 0.0 3.2 0.03 0.20 0.20 81 1011.0
20260504202706 13 10 0.0 4.8 0.03 0.20 0.20 81 1011.0
20260504202205 13 10 0.0 4.8 0.03 0.20 0.20 81 1011.0
20260504201205 13 10 0.0 6.4 0.03 0.20 0.20 81 1011.0
20260504200705 13 10 0.0 6.4 0.03 0.20 0.20 81 1011.0
20260504200205 13 10 1.6 6.4 0.03 0.20 0.20 81 1011.1
20260504195705 13 10 1.6 6.4 0.03 0.20 0.20 81 1011.0
20260504195205 13 10 0.0 1.6 0.05 0.20 0.20 81 1010.9
20260504194707 13 10 0.0 1.6 0.05 0.20 0.20 81 1010.9
20260504194206 13 10 0.0 1.6 0.05 0.20 0.20 81 1010.9
20260504193706 13 10 0.0 3.2 0.03 0.18 0.18 81 1010.8
20260504193206 13 10 0.0 3.2 0.03 0.18 0.18 81 1010.8
20260504192705 13 10 0.0 3.2 0.03 0.18 0.18 81 1010.7
20260504191705 13 10 0.0 6.4 0.03 0.18 0.18 81 1010.7
20260504190705 13 10 1.6 6.4 0.03 0.18 0.18 81 1010.7
20260504190205 13 10 0.0 3.2 0.05 0.18 0.18 81 1010.7
20260504185705 13 10 0.0 4.8 0.03 0.15 0.15 81 1010.7
20260504185205 13 10 0.0 4.8 0.03 0.15 0.15 81 1010.7
20260504184706 13 10 0.0 4.8 0.03 0.15 0.15 81 1010.7
20260504184205 13 10 0.0 4.8 0.03 0.15 0.15 81 1010.7
20260504183710 13 10 0.0 3.2 0.03 0.15 0.15 81 1010.6
20260504183211 13 10 0.0 4.8 0.05 0.15 0.15 81 1010.6
20260504182705 13 10 0.0 4.8 0.05 0.15 0.15 81 1010.6
20260504182205 13 10 0.0 6.4 0.05 0.15 0.15 81 1010.6
20260504181205 14 10 1.6 8.0 0.05 0.15 0.15 82 1010.6
20260504180705 14 10 1.6 8.0 0.05 0.15 0.15 82 1010.6
20260504180205 14 10 1.6 6.4 0.03 0.15 0.15 82 1010.6
20260504175705 14 9 0.0 4.8 0.03 0.15 0.15 82 1010.7
20260504175205 14 9 0.0 4.8 0.05 0.15 0.15 82 1010.7
20260504174205 14 9 0.0 3.2 0.05 0.15 0.15 82 1010.8
20260504173705 14 9 0.0 6.4 0.05 0.15 0.15 82 1010.8
20260504173205 14 9 1.6 6.4 0.03 0.13 0.13 82 1010.8
20260504172709 14 9 1.6 4.8 0.05 0.13 0.13 82 1010.8
20260504172205 14 9 0.0 3.2 0.05 0.13 0.13 82 1010.9
20260504171705 14 9 0.0 4.8 0.05 0.13 0.13 82 1010.9
20260504171205 14 9 0.0 4.8 0.05 0.13 0.13 82 1010.9
20260504170705 14 9 0.0 4.8 0.05 0.13 0.13 82 1010.9
20260504160205 15 9 0.0 3.2 0.05 0.08 0.08 82 1011.3